[[{"header":{"parameterUnit":"m.s-1","parameterCategory":2,"la1":30.2991,"la2":30.254,"lo1":-89.0895,"lo2":-89.0444,"dy":0.0017,"dx":0.0017,"nx":28,"ny":28,"refTime":"2023-10-14T03:00:00:Z","depth":"0","parameterNumber":2,"parameterNumberName":"U-component_of_CURRENTS"},"data":[0,0,0,0,0,0,0,0,0,0,0,0,0,0,0,0,0,0,0,0,0,0,0,0,0,0,0,0,0,0,0,0,0,0,0,0,0,0,0,0,0,0,0,0,0,0,0,0,0,0,0,0,0,0,0,0,0,0,0.2638,0.2638,0,0.265,0.265,0.2651,0.2681,0.2681,0.2681,0.2682,0.2658,0.2657,0.2656,0,0,0,0,0,0,0,0,0,0,0,0,0,0.2608,0.2609,0.2638,0.2638,0.2638,0.265,0.265,0.2651,0.2681,0.2681,0.2682,0.2682,0.2659,0.2657,0.2656,0,0,0,0,0,0,0,0,0,0,0,0,0,0.2624,0.2609,0.2638,0.2651,0.2652,0.2649,0.265,0.2651,0.2681,0.2681,0.2682,0.2682,0.2659,0.2658,0.2656,0.2639,0,0,0.2652,0.2651,0,0,0,0,0,0,0,0,0.2623,0.2626,0.265,0.265,0.2651,0.2661,0.2631,0.2644,0.2681,0.2674,0.2682,0.2682,0.2653,0.2652,0.2659,0.2638,0.2637,0.2652,0.2651,0.2651,0.265,0,0,0,0,0,0,0,0.2622,0.2625,0.2647,0.2649,0.265,0.2645,0.2648,0.2634,0.2663,0.2675,0.2676,0.2671,0.2654,0.2661,0.2659,0.2637,0.2652,0.2651,0.265,0.2649,0.2612,0.2612,0,0,0,0,0,0,0.2614,0.2624,0.2646,0.2647,0.2634,0.2645,0.2649,0.2661,0.2664,0.2664,0.2671,0.2672,0.2663,0.266,0.2658,0.2668,0.2651,0.2649,0.2649,0.2612,0.2612,0.2612,0,0,0,0,0,0,0.2614,0.2617,0.2646,0.2631,0.2634,0.2645,0.2658,0.266,0.2668,0.2661,0.2661,0.2674,0.2663,0.266,0.2666,0.2666,0.2649,0.2647,0.2612,0.2612,0.2612,0.2668,0,0,0,0,0,0,0.2613,0.2617,0.262,0.2632,0.2635,0.2651,0.2657,0.266,0.2662,0.2664,0.2663,0.2662,0.2663,0.2668,0.2665,0.2664,0.2646,0.2612,0.2612,0.2612,0.2666,0.267,0.2673,0,0,0,0,0,0.2613,0.2619,0.2621,0.2623,0.264,0.2651,0.2653,0.2663,0.2661,0.267,0.2679,0.2662,0.2662,0.2668,0.2663,0.2662,0.2613,0.2612,0.2612,0.2665,0.2669,0.2672,0,0,0,0,0,0,0.2584,0.2623,0.2625,0.2636,0.2643,0.2655,0.2656,0.266,0.2673,0.2674,0.267,0.267,0.2681,0.2655,0.2661,0.2647,0.2629,0.2628,0.2671,0.2675,0.2678,0.2672,0.2645,0,0,0,0,0,0.2582,0.2609,0.2627,0.2628,0.2637,0.2644,0.2646,0.2656,0.2666,0.2672,0.2674,0.2668,0.2673,0.2663,0.2667,0.2652,0.2664,0.2642,0.2646,0.2649,0.2639,0.2673,0.268,0.261,0.261,0.261,0,0,0.255,0.2587,0.2587,0.2625,0.2631,0.2651,0.2649,0.2657,0.2678,0.2664,0.2692,0.2689,0.2676,0.2684,0.268,0.266,0.2679,0.2648,0.2651,0.264,0.2674,0.2681,0.2687,0.261,0.261,0.261,0,0,0.2533,0.2553,0.2581,0.26,0.2628,0.2644,0.2646,0.2667,0.2687,0.2709,0.2709,0.2705,0.2707,0.27,0.2695,0.2705,0.271,0.2695,0.2691,0.2725,0.2732,0.2738,0.2792,0.2802,0.2679,0.2679,0.2679,0,0.2503,0.2547,0.258,0.2618,0.2632,0.2643,0.2666,0.2688,0.2707,0.2731,0.2726,0.273,0.2717,0.2716,0.2719,0.2713,0.2742,0.2685,0.2733,0.2738,0.2743,0.2797,0.2807,0.2682,0.2681,0.2681,0.2681,0,0.2519,0.2547,0.256,0.2627,0.2645,0.2662,0.2699,0.2726,0.2747,0.277,0.2791,0.2772,0.2772,0.2756,0.2741,0.2752,0.2768,0.2753,0.2731,0.2754,0.2809,0.2819,0.2685,0.2684,0.2684,0.2683,0,0,0.251,0.2562,0.2575,0.2586,0.2658,0.2663,0.2723,0.2777,0.2807,0.2822,0.2854,0.2838,0.2825,0.2813,0.278,0.2773,0.284,0.2769,0.277,0.2838,0.2943,0.2995,0.3011,0.2845,0.2846,0.2847,0.2979,0,0.2525,0.2548,0.2614,0.2638,0.264,0.2702,0.275,0.2797,0.2846,0.2882,0.287,0.2887,0.2849,0.2837,0.2835,0.2836,0.2864,0.2807,0.2895,0.2898,0.2954,0.3022,0.3071,0.3195,0.2988,0.299,0.2991,0,0.2564,0.2566,0.2563,0.2619,0.2637,0.266,0.2736,0.2793,0.2871,0.2909,0.2931,0.2944,0.2938,0.2899,0.2934,0.2906,0.2935,0.293,0.2936,0.2965,0.2968,0.313,0.3221,0.315,0.3006,0.3005,0.3004,0,0.2504,0.2565,0.2543,0.2553,0.2602,0.2634,0.269,0.2779,0.2826,0.2919,0.2948,0.2982,0.298,0.3013,0.3025,0.2998,0.3071,0.3045,0.3127,0.3132,0.3177,0.3184,0.3218,0.31,0.3099,0.3099,0.3099,0,0.2505,0.2501,0.2493,0.2467,0.2488,0.2558,0.2602,0.2696,0.2774,0.282,0.2932,0.2952,0.3007,0.306,0.3072,0.3143,0.3135,0.3149,0.3173,0.3201,0.3207,0.3148,0.3068,0.3104,0.3103,0.3102,0.3101,0,0.2438,0.2433,0.2411,0.2426,0.2442,0.245,0.2539,0.2575,0.2679,0.2739,0.2771,0.2932,0.3049,0.3117,0.3188,0.321,0.3206,0.3293,0.3333,0.3359,0.3369,0.3291,0.3182,0.3091,0.3426,0.3428,0.343,0,0.2396,0.2356,0.2345,0.2348,0.2356,0.2372,0.2402,0.2504,0.2543,0.271,0.273,0.2904,0.3017,0.3194,0.3318,0.344,0.3281,0.3523,0.347,0.3398,0.3327,0.3122,0.3035,0.3568,0.3571,0.3573,0.3575,0,0.2325,0.231,0.2295,0.228,0.2288,0.2313,0.2355,0.2353,0.2482,0.2545,0.2681,0.2799,0.3063,0.3243,0.3449,0.3536,0.3401,0.3574,0.3488,0.3437,0.3225,0.3141,0.3454,0.3595,0.3593,0.3592,0.3591,0.359,0.2291,0.2274,0.2255,0.2251,0.2273,0.2293,0.2285,0.2333,0.2391,0.2491,0.26,0.276,0.309,0.3433,0.3503,0.3717,0.3531,0.3689,0.3606,0.3407,0.3286,0.3653,0.3816,0.3815,0.3814,0.3814,0.3813,0,0.2231,0.2239,0.2245,0.225,0.2247,0.2271,0.2291,0.2264,0.2301,0.2412,0.2511,0.2834,0.3124,0.3402,0.3764,0.3743,0.3589,0.3674,0.3402,0.3317,0.3687,0.3665,0.3815,0.3815,0.3815,0.3815,0.3815,0.3815,0.2206,0.219,0.2188,0.2199,0.2215,0.2184,0.2172,0.2166,0.2211,0.2314,0.2454,0.2612,0.3067,0.3506,0.3713,0.3704,0.34,0.3333,0.3159,0.3464,0.3457,0.345,0.3413,0.3507,0.3507,0.2755,0.2749,0.2745]},{"header":{"parameterUnit":"m.s-1","parameterCategory":2,"la1":30.2991,"la2":30.254,"lo1":-89.0895,"lo2":-89.0444,"dy":0.0017,"dx":0.0017,"nx":28,"ny":28,"refTime":"2023-10-14T03:00:00:Z","depth":"0","parameterNumber":3,"parameterNumberName":"V-component_of_CURRENTS"},"data":[0,0,0,0,0,0,0,0,0,0,0,0,0,0,0,0,0,0,0,0,0,0,0,0,0,0,0,0,0,0,0,0,0,0,0,0,0,0,0,0,0,0,0,0,0,0,0,0,0,0,0,0,0,0,0,0,0,0,-0.1516,-0.1515,0,-0.1425,-0.1424,-0.1422,-0.1366,-0.1366,-0.1366,-0.1366,-0.1394,-0.1395,-0.1395,0,0,0,0,0,0,0,0,0,0,0,0,0,-0.1561,-0.1561,-0.1516,-0.1515,-0.1514,-0.1425,-0.1424,-0.1422,-0.1366,-0.1366,-0.1366,-0.1366,-0.1394,-0.1395,-0.1395,0,0,0,0,0,0,0,0,0,0,0,0,0,-0.151,-0.1561,-0.1516,-0.1478,-0.1474,-0.1426,-0.1424,-0.1422,-0.1366,-0.1366,-0.1366,-0.1366,-0.1394,-0.1395,-0.1396,-0.14,0,0,-0.1399,-0.1399,0,0,0,0,0,0,0,0,-0.1513,-0.1508,-0.1485,-0.1481,-0.1476,-0.141,-0.145,-0.1422,-0.1366,-0.1403,-0.1366,-0.1366,-0.1413,-0.1412,-0.1388,-0.1402,-0.1403,-0.1399,-0.1399,-0.14,-0.14,0,0,0,0,0,0,0,-0.1517,-0.1511,-0.1476,-0.1484,-0.1479,-0.1439,-0.1432,-0.1443,-0.1408,-0.14,-0.1396,-0.1393,-0.1411,-0.1387,-0.1389,-0.1403,-0.1399,-0.14,-0.14,-0.1401,-0.1423,-0.1423,0,0,0,0,0,0,-0.154,-0.1515,-0.1479,-0.1474,-0.15,-0.1439,-0.1431,-0.1428,-0.1405,-0.1402,-0.1393,-0.139,-0.1385,-0.1387,-0.139,-0.137,-0.14,-0.1401,-0.1401,-0.1423,-0.1423,-0.1423,0,0,0,0,0,0,-0.1541,-0.1537,-0.1483,-0.1495,-0.1486,-0.1439,-0.1436,-0.1427,-0.1408,-0.1399,-0.1397,-0.1385,-0.1385,-0.1388,-0.1382,-0.1373,-0.1401,-0.1402,-0.1423,-0.1423,-0.1423,-0.1349,0,0,0,0,0,0,-0.1543,-0.1538,-0.1535,-0.1497,-0.1486,-0.1453,-0.1436,-0.1425,-0.1407,-0.1403,-0.1393,-0.1394,-0.1386,-0.138,-0.1383,-0.1375,-0.1403,-0.1423,-0.1423,-0.1423,-0.1351,-0.1346,-0.1342,0,0,0,0,0,-0.1545,-0.154,-0.1535,-0.1531,-0.1486,-0.1453,-0.1443,-0.1407,-0.1407,-0.1392,-0.1377,-0.1395,-0.1383,-0.138,-0.1384,-0.1375,-0.1423,-0.1423,-0.1423,-0.1353,-0.1347,-0.1342,0,0,0,0,0,0,-0.1531,-0.1533,-0.1527,-0.1515,-0.1489,-0.1445,-0.1428,-0.1415,-0.1388,-0.139,-0.1384,-0.1384,-0.1376,-0.1394,-0.1392,-0.1385,-0.1411,-0.1411,-0.1357,-0.1352,-0.1347,-0.1332,-0.1404,0,0,0,0,0,-0.1536,-0.1545,-0.1525,-0.151,-0.1506,-0.1473,-0.1454,-0.1434,-0.141,-0.1397,-0.1384,-0.1382,-0.1377,-0.1378,-0.1376,-0.1374,-0.1389,-0.1377,-0.1372,-0.1368,-0.136,-0.1377,-0.1372,-0.1422,-0.1422,-0.1422,0,0,-0.1515,-0.1526,-0.152,-0.151,-0.149,-0.1465,-0.146,-0.1437,-0.1408,-0.141,-0.1367,-0.1365,-0.1373,-0.1352,-0.1353,-0.1367,-0.136,-0.1367,-0.1363,-0.1358,-0.1376,-0.1371,-0.1367,-0.1422,-0.1422,-0.1422,0,0,-0.1495,-0.1502,-0.1506,-0.1495,-0.1484,-0.1461,-0.1463,-0.1425,-0.1402,-0.1367,-0.136,-0.1344,-0.1339,-0.1321,-0.1321,-0.1299,-0.1333,-0.1319,-0.128,-0.1296,-0.1292,-0.1288,-0.1286,-0.1283,-0.1318,-0.1317,-0.1317,0,-0.1475,-0.1473,-0.1493,-0.1493,-0.1475,-0.1466,-0.1442,-0.1416,-0.1371,-0.1355,-0.1352,-0.131,-0.1317,-0.1287,-0.1269,-0.1285,-0.1301,-0.1294,-0.1288,-0.1285,-0.1282,-0.1281,-0.1279,-0.1314,-0.1314,-0.1315,-0.1315,0,-0.1455,-0.1448,-0.1448,-0.145,-0.1435,-0.1412,-0.1393,-0.1368,-0.1348,-0.1318,-0.1281,-0.1258,-0.124,-0.1239,-0.1242,-0.1227,-0.1245,-0.1276,-0.1295,-0.1272,-0.1273,-0.1272,-0.1309,-0.131,-0.1311,-0.1312,0,0,-0.1441,-0.1433,-0.1437,-0.1408,-0.1411,-0.138,-0.1363,-0.1325,-0.1295,-0.1256,-0.1212,-0.1182,-0.1178,-0.1178,-0.1179,-0.1177,-0.1163,-0.1216,-0.1219,-0.1201,-0.119,-0.1167,-0.1163,-0.1199,-0.1199,-0.1199,-0.1192,0,-0.1417,-0.1377,-0.1405,-0.1347,-0.1308,-0.1318,-0.1288,-0.1262,-0.1242,-0.1197,-0.1182,-0.1146,-0.1157,-0.1141,-0.1141,-0.1152,-0.1159,-0.1161,-0.1227,-0.1228,-0.12,-0.1161,-0.1087,-0.1072,-0.119,-0.119,-0.119,0,-0.1408,-0.137,-0.1305,-0.126,-0.1252,-0.122,-0.1175,-0.1153,-0.1131,-0.1123,-0.1104,-0.1105,-0.1076,-0.1104,-0.1104,-0.1109,-0.115,-0.1161,-0.1163,-0.1165,-0.1202,-0.112,-0.1066,-0.1127,-0.1188,-0.1188,-0.1189,0,-0.1351,-0.1316,-0.1246,-0.1228,-0.1175,-0.1151,-0.1128,-0.1111,-0.1091,-0.1077,-0.1067,-0.105,-0.1033,-0.1065,-0.1085,-0.1109,-0.1091,-0.1138,-0.1154,-0.1152,-0.1113,-0.1108,-0.1113,-0.1168,-0.1168,-0.1168,-0.1168,0,-0.1316,-0.1262,-0.1197,-0.1144,-0.1069,-0.1069,-0.1005,-0.1009,-0.0995,-0.0961,-0.1016,-0.0986,-0.103,-0.1031,-0.1067,-0.1077,-0.1086,-0.1128,-0.1145,-0.1084,-0.1078,-0.1151,-0.1221,-0.1168,-0.1168,-0.1168,-0.1168,0,-0.127,-0.1228,-0.1143,-0.1062,-0.1033,-0.0981,-0.0935,-0.0897,-0.091,-0.0874,-0.0876,-0.0928,-0.093,-0.0963,-0.1,-0.1046,-0.1096,-0.1083,-0.0992,-0.0998,-0.108,-0.115,-0.121,-0.1265,-0.1099,-0.1098,-0.1098,0,-0.1235,-0.1177,-0.1078,-0.1035,-0.0997,-0.0913,-0.0865,-0.0849,-0.0822,-0.0823,-0.0806,-0.0825,-0.0804,-0.084,-0.091,-0.0953,-0.1063,-0.0965,-0.1004,-0.1053,-0.1144,-0.1212,-0.126,-0.0918,-0.0916,-0.0914,-0.0913,0,-0.1174,-0.1149,-0.1082,-0.0982,-0.0914,-0.0841,-0.077,-0.0726,-0.071,-0.0677,-0.0641,-0.0622,-0.0679,-0.0667,-0.0764,-0.083,-0.1006,-0.0936,-0.1012,-0.1015,-0.1064,-0.1134,-0.0951,-0.0899,-0.09,-0.0901,-0.0902,-0.0902,-0.1148,-0.1106,-0.1027,-0.0932,-0.0866,-0.0773,-0.0683,-0.0619,-0.0536,-0.0433,-0.0466,-0.0344,-0.0403,-0.0515,-0.0663,-0.0844,-0.0936,-0.0895,-0.0977,-0.1041,-0.1089,-0.0864,-0.0823,-0.0824,-0.0825,-0.0825,-0.0826,0,-0.1098,-0.1049,-0.0978,-0.0857,-0.0757,-0.0735,-0.0624,-0.0515,-0.0376,-0.0239,-0.0148,0.0016,-0.011,-0.0284,-0.0528,-0.0778,-0.0938,-0.0935,-0.1008,-0.1062,-0.0857,-0.0842,-0.0772,-0.0772,-0.0772,-0.0772,-0.0772,-0.0772,-0.1066,-0.0989,-0.0936,-0.0754,-0.0673,-0.0518,-0.0433,-0.0298,-0.0164,0.0141,0.036,0.048,0.0562,-0.0133,-0.061,-0.0804,-0.1036,-0.1098,-0.1249,-0.1089,-0.1091,-0.1094,-0.1094,-0.1077,-0.1078,-0.1394,-0.1397,-0.1399]}],[{"header":{"parameterUnit":"m.s-1","parameterCategory":2,"la1":30.2991,"la2":30.254,"lo1":-89.0895,"lo2":-89.0444,"dy":0.0017,"dx":0.0017,"nx":28,"ny":28,"refTime":"2023-10-14T03:00:00:Z","depth":"2","parameterNumber":2,"parameterNumberName":"U-component_of_CURRENTS"},"data":[0,0,0,0,0,0,0,0,0,0,0,0,0,0,0,0,0,0,0,0,0,0,0,0,0,0,0,0,0,0,0,0,0,0,0,0,0,0,0,0,0,0,0,0,0,0,0,0,0,0,0,0,0,0,0,0,0,0,0.0642,0.0643,0,0.0709,0.0709,0.071,0.0734,0.0734,0.0734,0.0734,0.0783,0.0785,0.0786,0,0,0,0,0,0,0,0,0,0,0,0,0,0.0529,0.0531,0.0642,0.0643,0.0644,0.0708,0.0709,0.071,0.0734,0.0734,0.0734,0.0734,0.0783,0.0784,0.0786,0,0,0,0,0,0,0,0,0,0,0,0,0,0.0583,0.0532,0.0642,0.0666,0.0669,0.0708,0.0709,0.071,0.0734,0.0734,0.0734,0.0734,0.0782,0.0784,0.0786,0.0797,0,0,0.0792,0.0793,0,0,0,0,0,0,0,0,0.058,0.0586,0.0661,0.0664,0.0668,0.0715,0.0688,0.0739,0.0734,0.0706,0.0734,0.0734,0.0761,0.0765,0.0773,0.08,0.0802,0.0792,0.0793,0.0794,0.0795,0,0,0,0,0,0,0,0.0576,0.0584,0.0666,0.0663,0.0667,0.0672,0.0679,0.0697,0.073,0.0709,0.0711,0.0723,0.0762,0.0771,0.0775,0.0802,0.0792,0.0794,0.0795,0.0796,0.0882,0.0883,0,0,0,0,0,0,0.0574,0.058,0.0663,0.0668,0.0626,0.0674,0.0682,0.0698,0.073,0.0736,0.0723,0.0724,0.0768,0.0772,0.0776,0.0838,0.0794,0.0796,0.0797,0.0881,0.0882,0.0884,0,0,0,0,0,0,0.0571,0.0581,0.0661,0.0627,0.0638,0.0676,0.0694,0.0699,0.071,0.0742,0.0747,0.0729,0.0768,0.0774,0.0828,0.0838,0.0797,0.0799,0.088,0.0881,0.0883,0.0931,0,0,0,0,0,0,0.0568,0.058,0.0585,0.0628,0.064,0.0687,0.0694,0.0701,0.0719,0.0721,0.0748,0.0753,0.0769,0.0825,0.083,0.084,0.08,0.0878,0.088,0.0882,0.0928,0.0934,0.0939,0,0,0,0,0,0.0564,0.058,0.0585,0.0595,0.0649,0.0688,0.0694,0.0719,0.0719,0.0727,0.0769,0.0752,0.084,0.0829,0.0834,0.0844,0.0877,0.088,0.0882,0.0925,0.0933,0.0939,0,0,0,0,0,0,0.0561,0.0586,0.0592,0.0622,0.0651,0.0693,0.0705,0.0717,0.0754,0.0756,0.0781,0.0791,0.0841,0.0837,0.0823,0.0875,0.0849,0.0853,0.088,0.0887,0.0893,0.0901,0.0802,0,0,0,0,0,0.0556,0.0555,0.0598,0.062,0.0634,0.0665,0.0681,0.0697,0.0737,0.0752,0.0787,0.0817,0.0854,0.0867,0.09,0.0928,0.0937,0.0933,0.0939,0.0944,0.0954,0.0986,0.0995,0.0892,0.0892,0.0892,0,0,0.0562,0.0575,0.0577,0.0615,0.0637,0.0683,0.0674,0.07,0.0749,0.0752,0.0829,0.0846,0.087,0.0919,0.0936,0.0916,0.0979,0.0947,0.0951,0.0959,0.0989,0.0999,0.1008,0.0894,0.0893,0.0893,0,0,0.0572,0.0584,0.0587,0.0616,0.0647,0.0682,0.0689,0.0738,0.0765,0.0831,0.0853,0.0884,0.0937,0.0965,0.0981,0.1033,0.1017,0.1024,0.1051,0.1081,0.109,0.1098,0.1129,0.1139,0.1015,0.1015,0.1016,0,0.0586,0.0596,0.0598,0.0627,0.0662,0.0687,0.0729,0.0771,0.0838,0.0865,0.0862,0.0954,0.0964,0.1029,0.1045,0.1046,0.1059,0.1023,0.1089,0.1097,0.1104,0.1134,0.1145,0.1018,0.1018,0.1018,0.1017,0,0.0596,0.0623,0.0635,0.068,0.0721,0.0753,0.0821,0.0862,0.0895,0.0935,0.1001,0.1031,0.1077,0.1076,0.1078,0.1129,0.1122,0.1102,0.1072,0.1118,0.1146,0.1156,0.1022,0.1021,0.102,0.1019,0,0,0.0602,0.0631,0.0641,0.0682,0.0746,0.0798,0.087,0.0944,0.1,0.1047,0.1116,0.1161,0.1155,0.1173,0.1171,0.1186,0.1242,0.116,0.116,0.1191,0.1314,0.14,0.1419,0.1231,0.1233,0.1234,0.1316,0,0.0618,0.068,0.068,0.0778,0.084,0.0876,0.0946,0.1017,0.1074,0.1153,0.1169,0.1239,0.1201,0.1219,0.1231,0.1253,0.127,0.1222,0.1265,0.1267,0.1338,0.1435,0.1176,0.1236,0.1326,0.1328,0.1329,0,0.0632,0.0685,0.0764,0.0849,0.0872,0.0938,0.1054,0.1107,0.1198,0.1234,0.1285,0.1309,0.1362,0.1313,0.1369,0.134,0.1329,0.1331,0.1334,0.1406,0.1373,0.1203,0.125,0.1346,0.1344,0.1343,0.1342,0,0.0686,0.0746,0.0815,0.0851,0.0952,0.0997,0.1048,0.1141,0.1172,0.1299,0.1332,0.1406,0.1439,0.1455,0.1463,0.1416,0.1524,0.1458,0.1526,0.1531,0.1318,0.1304,0.149,0.149,0.149,0.1489,0.1489,0,0.0728,0.077,0.0849,0.0923,0.0973,0.1049,0.1122,0.1171,0.1249,0.1281,0.1372,0.142,0.1471,0.1529,0.1518,0.1591,0.1572,0.157,0.1576,0.1332,0.1318,0.1408,0.1398,0.1492,0.1492,0.1491,0.1491,0,0.0747,0.0788,0.0871,0.0993,0.1008,0.1054,0.1107,0.1152,0.1248,0.1296,0.133,0.1444,0.1554,0.1618,0.1674,0.1674,0.1727,0.1741,0.1472,0.1449,0.1688,0.1678,0.183,0.1834,0.1838,0.184,0.1843,0,0.0737,0.0798,0.0921,0.0916,0.0952,0.1017,0.1033,0.1131,0.1164,0.1291,0.1298,0.1458,0.1543,0.1733,0.1767,0.1843,0.1838,0.1671,0.155,0.1742,0.1731,0.1716,0.1703,0.1262,0.1259,0.1257,0.1256,0,0.0714,0.0763,0.0853,0.088,0.0899,0.0912,0.0961,0.0994,0.1095,0.1162,0.1256,0.1354,0.1545,0.1574,0.1747,0.1722,0.1656,0.1641,0.1894,0.126,0.1225,0.1209,0.121,0.1237,0.1239,0.1241,0.1242,0.1242,0.0673,0.0688,0.0797,0.081,0.0816,0.0816,0.0862,0.0947,0.1011,0.1159,0.1178,0.1291,0.1356,0.1538,0.1576,0.1589,0.1646,0.1518,0.1514,0.1514,0.1479,0.1457,0.1504,0.1507,0.151,0.1513,0.1515,0,0.0606,0.0643,0.0672,0.073,0.0745,0.0768,0.0804,0.0868,0.0999,0.1128,0.1237,0.1049,0.1176,0.1282,0.1253,0.1326,0.121,0.1301,0.1067,0.1082,0.1096,0.1033,0.0943,0.0944,0.0944,0.0944,0,0,0.0561,0.0573,0.0617,0.065,0.0703,0.071,0.0751,0.0851,0.0941,0.0987,0.102,0.1231,0.121,0.1087,0.1075,0.1024,0.107,0.0995,0.1417,0.1152,0.1169,0.1151,0.1064,0,0,0,0,0]},{"header":{"parameterUnit":"m.s-1","parameterCategory":2,"la1":30.2991,"la2":30.254,"lo1":-89.0895,"lo2":-89.0444,"dy":0.0017,"dx":0.0017,"nx":28,"ny":28,"refTime":"2023-10-14T03:00:00:Z","depth":"2","parameterNumber":3,"parameterNumberName":"V-component_of_CURRENTS"},"data":[0,0,0,0,0,0,0,0,0,0,0,0,0,0,0,0,0,0,0,0,0,0,0,0,0,0,0,0,0,0,0,0,0,0,0,0,0,0,0,0,0,0,0,0,0,0,0,0,0,0,0,0,0,0,0,0,0,0,0.0709,0.0706,0,0.0568,0.0568,0.0568,0.0511,0.0509,0.0508,0.0506,0.0548,0.055,0.0553,0,0,0,0,0,0,0,0,0,0,0,0,0,0.0866,0.0865,0.0709,0.0706,0.0702,0.0568,0.0568,0.0568,0.0511,0.0509,0.0507,0.0506,0.0547,0.055,0.0553,0,0,0,0,0,0,0,0,0,0,0,0,0,0.0786,0.0865,0.071,0.0644,0.0635,0.0568,0.0568,0.0568,0.0511,0.0509,0.0507,0.0505,0.0546,0.055,0.0553,0.0616,0,0,0.0564,0.0566,0,0,0,0,0,0,0,0,0.0791,0.0783,0.0657,0.0648,0.0638,0.0539,0.0637,0.0587,0.0512,0.0578,0.0506,0.0504,0.0551,0.0554,0.0556,0.0618,0.062,0.0564,0.0567,0.0568,0.0569,0,0,0,0,0,0,0,0.0797,0.0788,0.0672,0.0653,0.0641,0.0599,0.0588,0.0628,0.0595,0.0572,0.0563,0.0519,0.055,0.0553,0.0557,0.062,0.0564,0.0568,0.057,0.0571,0.0613,0.0612,0,0,0,0,0,0,0.0783,0.0794,0.0676,0.0666,0.0691,0.0597,0.0585,0.0588,0.0591,0.0582,0.052,0.0516,0.0548,0.0553,0.0558,0.058,0.0568,0.0571,0.0574,0.0614,0.0613,0.0612,0,0,0,0,0,0,0.0788,0.0776,0.0681,0.0709,0.0691,0.0595,0.0599,0.0586,0.0543,0.0546,0.0545,0.0482,0.0546,0.0553,0.0597,0.0584,0.0573,0.0576,0.0615,0.0614,0.0612,0.066,0,0,0,0,0,0,0.0794,0.0781,0.0787,0.071,0.0689,0.0651,0.0598,0.0584,0.0512,0.0505,0.0515,0.0518,0.0545,0.0592,0.06,0.0588,0.0579,0.0617,0.0615,0.0613,0.0659,0.066,0.066,0,0,0,0,0,0.0801,0.0828,0.079,0.0773,0.07,0.0649,0.0639,0.0573,0.0512,0.0522,0.0526,0.0516,0.0582,0.0597,0.0606,0.0594,0.0617,0.0615,0.0613,0.0659,0.066,0.066,0,0,0,0,0,0,0.0842,0.082,0.0777,0.0778,0.0712,0.0633,0.0619,0.0552,0.0557,0.0536,0.0545,0.0554,0.0577,0.0576,0.059,0.0591,0.0581,0.0581,0.0612,0.0613,0.0613,0.0617,0.0582,0,0,0,0,0,0.0863,0.0919,0.0825,0.082,0.0788,0.0692,0.0655,0.0594,0.0567,0.0561,0.0564,0.056,0.0582,0.059,0.0616,0.0643,0.0603,0.0622,0.0622,0.0623,0.0627,0.055,0.0544,0.0604,0.0604,0.0604,0,0,0.0871,0.086,0.0883,0.0838,0.0782,0.076,0.0672,0.0603,0.0584,0.0572,0.0582,0.0578,0.059,0.0622,0.0626,0.0618,0.0586,0.062,0.0622,0.0625,0.0547,0.0541,0.0536,0.0603,0.0603,0.0603,0,0,0.0915,0.0902,0.0954,0.0916,0.0823,0.0782,0.075,0.0659,0.0626,0.0627,0.0601,0.0591,0.0626,0.0628,0.0635,0.0646,0.0597,0.0625,0.0635,0.056,0.0555,0.055,0.0503,0.0493,0.0618,0.0618,0.0618,0,0.088,0.094,0.0945,0.0948,0.0904,0.0792,0.0772,0.0745,0.0678,0.0654,0.0636,0.0627,0.0631,0.0648,0.0648,0.065,0.0603,0.0644,0.0563,0.0557,0.0551,0.0503,0.0492,0.062,0.062,0.062,0.0619,0,0.096,0.0972,0.0979,0.0986,0.0975,0.0916,0.0863,0.0828,0.076,0.0716,0.0693,0.0697,0.0678,0.0663,0.0673,0.0624,0.0605,0.0581,0.0569,0.0548,0.0499,0.0487,0.0623,0.0622,0.0622,0.0621,0,0,0.0906,0.1008,0.0989,0.0981,0.096,0.0924,0.0938,0.0884,0.0835,0.0801,0.077,0.0774,0.0718,0.0718,0.0693,0.0631,0.0553,0.0586,0.0581,0.0554,0.0395,0.0404,0.0391,0.0506,0.0504,0.0502,0.0383,0,0.0899,0.0893,0.1006,0.0993,0.0951,0.0945,0.0972,0.0929,0.0882,0.0849,0.0806,0.0785,0.0757,0.0725,0.0667,0.0594,0.052,0.0589,0.0407,0.0403,0.0423,0.0376,0.0363,0.0257,0.0371,0.0369,0.0367,0,0.0886,0.089,0.0862,0.0928,0.0919,0.0936,0.089,0.0908,0.0884,0.0854,0.0823,0.0802,0.0757,0.071,0.0568,0.0609,0.0498,0.0428,0.0421,0.0404,0.0387,0.0291,0.023,0.0346,0.0347,0.0349,0.035,0,0.0713,0.0779,0.074,0.074,0.0814,0.0822,0.0859,0.0856,0.0877,0.0834,0.0832,0.0781,0.0748,0.0622,0.0515,0.0515,0.0348,0.0325,0.0228,0.0229,0.0171,0.0171,0.0177,0.0177,0.0178,0.0178,0.0178,0,0.0598,0.061,0.0639,0.0594,0.0618,0.0697,0.0704,0.0737,0.0781,0.0816,0.0806,0.0825,0.0712,0.064,0.0515,0.0356,0.0337,0.0223,0.0189,0.0189,0.0191,0.0231,0.0239,0.0173,0.0174,0.0175,0.0176,0,0.0476,0.0484,0.0484,0.0509,0.053,0.0542,0.0681,0.0703,0.0718,0.0768,0.0774,0.0828,0.0743,0.0637,0.0449,0.0352,0.0198,0.013,0.0165,0.0137,0.0127,0.0138,0.0004,0.0003,0.0003,0.0002,0.0001,0,0.0438,0.0383,0.0367,0.0433,0.0483,0.0512,0.0572,0.0641,0.0694,0.0782,0.0832,0.08,0.0812,0.0596,0.0411,0.0196,0.0171,0.0026,0.0018,0.0124,0.0104,0.0117,0.0129,-0.0044,-0.0045,-0.0045,-0.0046,0,0.0445,0.0405,0.039,0.0388,0.0465,0.0561,0.0636,0.0674,0.0763,0.0794,0.0891,0.0915,0.0767,0.0594,0.0327,0.0193,0.0072,0.0005,0.0066,0.0023,0.0074,0.0057,0.007,-0.0052,-0.0052,-0.0051,-0.0051,-0.0051,0.0467,0.0481,0.0398,0.0431,0.0509,0.0614,0.0675,0.0733,0.0798,0.0888,0.0961,0.1026,0.0824,0.0556,0.0268,0.0008,0.0036,-0.008,-0.0077,-0.0074,-0.0037,0.0012,-0.0118,-0.0118,-0.0118,-0.0118,-0.0118,0,0.0504,0.0496,0.0513,0.0542,0.0594,0.0608,0.0737,0.0798,0.0822,0.0948,0.1005,0.1024,0.0778,0.056,0.0138,-0.0127,-0.013,-0.0192,-0.018,-0.0172,-0.0165,-0.0132,-0.024,-0.0241,-0.0242,-0.0243,0,0,0.0557,0.0551,0.0516,0.0572,0.0598,0.0702,0.0762,0.0819,0.0929,0.1087,0.1182,0.1223,0.0947,0.0629,0.0236,-0.0033,-0.0031,-0.0053,0.0068,0.0128,0.0137,-0.0082,-0.002,0,0,0,0,0]}],[{"header":{"parameterUnit":"m.s-1","parameterCategory":2,"la1":30.2991,"la2":30.254,"lo1":-89.0895,"lo2":-89.0444,"dy":0.0017,"dx":0.0017,"nx":28,"ny":28,"refTime":"2023-10-14T03:00:00:Z","depth":"4","parameterNumber":2,"parameterNumberName":"U-component_of_CURRENTS"},"data":[0,0,0,0,0,0,0,0,0,0,0,0,0,0,0,0,0,0,0,0,0,0,0,0,0,0,0,0,0,0,0,0,0,0,0,0,0,0,0,0,0,0,0,0,0,0,0,0,0,0,0,0,0,0,0,0,0,0,-0.0019,-0.0019,0,-0.0043,-0.0044,-0.0044,-0.0044,-0.0043,-0.0043,-0.0042,-0.0061,-0.0061,-0.0062,0,0,0,0,0,0,0,0,0,0,0,0,0,-0.0027,-0.0027,-0.0019,-0.0019,-0.0019,-0.0043,-0.0044,-0.0044,-0.0044,-0.0043,-0.0043,-0.0042,-0.006,-0.0061,-0.0062,0,0,0,0,0,0,0,0,0,0,0,0,0,-0.0036,-0.0026,-0.0019,-0.0021,-0.0021,-0.0043,-0.0044,-0.0044,-0.0044,-0.0043,-0.0042,-0.0042,-0.006,-0.0061,-0.0063,-0.0084,0,0,-0.0067,-0.0067,0,0,0,0,0,0,0,0,-0.0035,-0.0035,-0.002,-0.0021,-0.0021,-0.0039,-0.0053,-0.0057,-0.0044,-0.0036,-0.0042,-0.0042,-0.0052,-0.0054,-0.0062,-0.0085,-0.0085,-0.0067,-0.0068,-0.0068,-0.0069,0,0,0,0,0,0,0,-0.0034,-0.0035,-0.0029,-0.0021,-0.0021,-0.004,-0.004,-0.0054,-0.0048,-0.0037,-0.0037,-0.0038,-0.0053,-0.0061,-0.0062,-0.0086,-0.0067,-0.0068,-0.0069,-0.0069,-0.0125,-0.0126,0,0,0,0,0,0,-0.0027,-0.0034,-0.0029,-0.003,-0.0025,-0.004,-0.004,-0.0035,-0.0048,-0.005,-0.0039,-0.0038,-0.0059,-0.0061,-0.0063,-0.0076,-0.0068,-0.0069,-0.007,-0.0124,-0.0125,-0.0126,0,0,0,0,0,0,-0.0027,-0.0026,-0.0028,-0.0032,-0.0033,-0.004,-0.0034,-0.0035,-0.0029,-0.0049,-0.0051,-0.0029,-0.0058,-0.0061,-0.0074,-0.0077,-0.007,-0.0071,-0.0124,-0.0125,-0.0126,-0.011,0,0,0,0,0,0,-0.0027,-0.0026,-0.0025,-0.0031,-0.0033,-0.0033,-0.0035,-0.0036,-0.0032,-0.0031,-0.0042,-0.0044,-0.0058,-0.0072,-0.0075,-0.0079,-0.0072,-0.0123,-0.0124,-0.0125,-0.011,-0.0111,-0.0111,0,0,0,0,0,-0.0027,-0.0029,-0.0024,-0.0024,-0.0029,-0.0032,-0.0035,-0.0039,-0.0031,-0.003,-0.0042,-0.0043,-0.0082,-0.0073,-0.0077,-0.0081,-0.0122,-0.0124,-0.0125,-0.011,-0.011,-0.0111,0,0,0,0,0,0,-0.0039,-0.0029,-0.0024,-0.0024,-0.0023,-0.0031,-0.0036,-0.0031,-0.0039,-0.0036,-0.005,-0.0054,-0.007,-0.0079,-0.0068,-0.0103,-0.0103,-0.0106,-0.009,-0.0091,-0.0092,-0.005,-0.0073,0,0,0,0,0,-0.0039,-0.0033,-0.0028,-0.0028,-0.0026,-0.0026,-0.0029,-0.0024,-0.0031,-0.0033,-0.004,-0.0056,-0.0083,-0.0087,-0.011,-0.0122,-0.0103,-0.0129,-0.013,-0.013,-0.01,-0.0106,-0.0104,-0.0131,-0.0131,-0.0131,0,0,-0.0043,-0.0038,-0.0035,-0.003,-0.003,-0.002,-0.0026,-0.0022,-0.0014,-0.0035,-0.0031,-0.0059,-0.0089,-0.0111,-0.0118,-0.0113,-0.0109,-0.0132,-0.0132,-0.0101,-0.0108,-0.0105,-0.0102,-0.0132,-0.0132,-0.0132,0,0,-0.0041,-0.0042,-0.0029,-0.0023,-0.0016,-0.0018,-0.0009,-0.0005,-0.0006,-0.0005,-0.0031,-0.0056,-0.0075,-0.0107,-0.0125,-0.0141,-0.0118,-0.015,-0.0111,-0.0119,-0.0116,-0.0113,-0.0063,-0.0056,-0.0144,-0.0144,-0.0144,0,-0.0044,-0.002,-0.0029,-0.0012,0.0002,-0.0009,0.0018,0.0005,0.0005,0.0006,0.0003,-0.0044,-0.0073,-0.011,-0.0114,-0.0141,-0.0114,-0.0105,-0.0117,-0.0114,-0.0111,-0.0061,-0.0053,-0.0144,-0.0144,-0.0144,-0.0144,0,-0.0023,-0.0001,0.0004,0.0029,0.0034,0.0052,0.0046,0.0049,0.0052,0.0043,0.0021,-0.0027,-0.0035,-0.0077,-0.0093,-0.0103,-0.0078,-0.0121,-0.0107,-0.0107,-0.0054,-0.0046,-0.0143,-0.0143,-0.0143,-0.0143,0,0,-0.0013,0.0018,0.003,0.006,0.0068,0.0084,0.0083,0.0091,0.0108,0.0078,0.0091,0.0024,0.002,0.0,-0.0044,-0.0065,-0.0029,-0.0067,-0.0068,-0.0001,0.0014,0.0018,0.0028,-0.0069,-0.0068,-0.0068,0.0052,0,0.0022,0.0073,0.0079,0.0134,0.016,0.0157,0.0167,0.0164,0.0153,0.0153,0.0086,0.0088,0.004,0.0052,0.0018,-0.0029,-0.001,-0.0053,-0.0008,-0.0005,0.0009,0.0035,-0.0065,0.0058,0.006,0.0061,0.0062,0,0.0061,0.0091,0.0156,0.0209,0.0224,0.0262,0.0296,0.0306,0.0275,0.027,0.0245,0.0205,0.0174,0.0133,0.01,0.0082,0.0083,0.0042,0.0044,0.0055,0.0012,0.0049,0.0077,0.0075,0.0074,0.0073,0.0072,0,0.0087,0.0156,0.0218,0.0236,0.0278,0.0327,0.0364,0.0358,0.0362,0.0371,0.0373,0.0324,0.0316,0.0279,0.021,0.0183,0.0169,0.0115,0.0129,0.0132,0.0087,0.0082,0.0135,0.0135,0.0135,0.0134,0.0134,0,0.0122,0.0175,0.0257,0.0283,0.0366,0.0401,0.0472,0.0486,0.0496,0.0476,0.0466,0.0411,0.0353,0.0312,0.0261,0.0229,0.023,0.017,0.016,0.0092,0.0087,0.0095,0.0088,0.0139,0.0138,0.0137,0.0136,0,0.0127,0.018,0.0243,0.0331,0.0374,0.0442,0.0533,0.0558,0.0601,0.0574,0.0589,0.0511,0.046,0.041,0.0343,0.0311,0.0267,0.0265,0.0255,0.0236,0.0238,0.023,0.0321,0.0322,0.0323,0.0324,0.0324,0,0.0133,0.0167,0.0265,0.031,0.0365,0.0474,0.0522,0.0595,0.0598,0.0576,0.0534,0.0519,0.0453,0.0393,0.033,0.0327,0.0293,0.0346,0.0249,0.0275,0.0256,0.0247,0.0239,0.0326,0.0326,0.0326,0.0327,0,0.0112,0.015,0.019,0.0276,0.0361,0.043,0.0513,0.0522,0.056,0.0597,0.0502,0.0471,0.0413,0.0345,0.0392,0.034,0.0342,0.0355,0.0352,0.0261,0.0282,0.026,0.0251,0.033,0.0329,0.0329,0.0329,0,0.0089,0.0104,0.0151,0.0231,0.0308,0.0352,0.042,0.0445,0.0474,0.048,0.0414,0.0373,0.0358,0.035,0.0326,0.0356,0.0333,0.0344,0.0341,0.0337,0.0279,0.0304,0.0378,0,0,0,0,0,0.0067,0.0065,0.0105,0.0176,0.0242,0.0287,0.037,0.0427,0.0468,0.041,0.0435,0.0371,0.035,0.0303,0.0332,0.0318,0.0332,0.0353,0.0341,0.0347,0.0344,0.0269,0,0,0,0,0,0,0.0046,0.0065,0.0069,0.0098,0.0136,0.0203,0.0251,0.0293,0.028,0.032,0.0299,0.0363,0.033,0.0313,0.0311,0.0318,0.0317,0.0363,0.0364,0.035,0.0346,0.0343,0.0266,0,0,0,0,0]},{"header":{"parameterUnit":"m.s-1","parameterCategory":2,"la1":30.2991,"la2":30.254,"lo1":-89.0895,"lo2":-89.0444,"dy":0.0017,"dx":0.0017,"nx":28,"ny":28,"refTime":"2023-10-14T03:00:00:Z","depth":"4","parameterNumber":3,"parameterNumberName":"V-component_of_CURRENTS"},"data":[0,0,0,0,0,0,0,0,0,0,0,0,0,0,0,0,0,0,0,0,0,0,0,0,0,0,0,0,0,0,0,0,0,0,0,0,0,0,0,0,0,0,0,0,0,0,0,0,0,0,0,0,0,0,0,0,0,0,0.0264,0.0264,0,0.0232,0.0232,0.0231,0.0248,0.0249,0.0251,0.0252,0.0211,0.0209,0.0207,0,0,0,0,0,0,0,0,0,0,0,0,0,0.029,0.029,0.0264,0.0264,0.0264,0.0232,0.0232,0.0231,0.0248,0.0249,0.0251,0.0252,0.0212,0.0209,0.0207,0,0,0,0,0,0,0,0,0,0,0,0,0,0.0267,0.0289,0.0264,0.0271,0.0272,0.0232,0.0231,0.0231,0.0248,0.0249,0.0251,0.0253,0.0213,0.021,0.0206,0.0151,0,0,0.0196,0.0195,0,0,0,0,0,0,0,0,0.0269,0.0266,0.027,0.0271,0.0271,0.0249,0.0226,0.0205,0.0247,0.0253,0.0252,0.0254,0.0224,0.022,0.0205,0.0149,0.0147,0.0196,0.0194,0.0193,0.0192,0,0,0,0,0,0,0,0.027,0.0267,0.0248,0.027,0.0271,0.0259,0.0258,0.0222,0.0226,0.0253,0.0255,0.0256,0.0224,0.0208,0.0204,0.0146,0.0196,0.0193,0.0191,0.019,0.008,0.0079,0,0,0,0,0,0,0.0282,0.0269,0.0249,0.0247,0.0278,0.0258,0.0256,0.0252,0.0227,0.0226,0.0255,0.0257,0.0213,0.0208,0.0203,0.0165,0.0193,0.019,0.0188,0.0081,0.008,0.0079,0,0,0,0,0,0,0.0282,0.028,0.025,0.0261,0.0257,0.0256,0.025,0.025,0.0254,0.0229,0.0228,0.0263,0.0214,0.0208,0.0167,0.0163,0.0188,0.0185,0.0082,0.0081,0.008,0.0071,0,0,0,0,0,0,0.0283,0.028,0.0276,0.0261,0.0257,0.0225,0.0249,0.0248,0.0253,0.0256,0.0234,0.0231,0.0215,0.0172,0.0164,0.0159,0.0183,0.0084,0.0082,0.008,0.0072,0.0069,0.0067,0,0,0,0,0,0.0284,0.0265,0.0276,0.0274,0.0253,0.0225,0.022,0.0224,0.0252,0.0238,0.0224,0.0233,0.0156,0.0168,0.0159,0.0153,0.0084,0.0082,0.008,0.0074,0.007,0.0067,0,0,0,0,0,0,0.0264,0.0265,0.0277,0.0258,0.0246,0.0229,0.0224,0.023,0.0208,0.022,0.0207,0.02,0.0164,0.0154,0.0168,0.0116,0.0127,0.0123,0.0125,0.0122,0.0119,0.0111,0.018,0,0,0,0,0,0.0261,0.0259,0.025,0.0238,0.0238,0.0237,0.0229,0.023,0.0213,0.0208,0.0193,0.0176,0.0142,0.0131,0.0097,0.0062,0.0052,0.0056,0.0053,0.0051,0.0038,0.0024,0.0019,0.0072,0.0072,0.0072,0,0,0.0251,0.0254,0.0251,0.0235,0.0236,0.0212,0.0236,0.0226,0.0199,0.0203,0.0168,0.0158,0.0128,0.0087,0.0073,0.0084,0.0029,0.0048,0.0047,0.0035,0.0021,0.0016,0.0012,0.0071,0.0071,0.0071,0,0,0.023,0.0236,0.0229,0.0217,0.0216,0.0203,0.0206,0.0193,0.0185,0.0143,0.0144,0.0124,0.0081,0.0054,0.0037,-0.0006,0.0009,0.0006,-0.0011,-0.0024,-0.0028,-0.0032,-0.0056,-0.0062,0.0012,0.0012,0.0012,0,0.0218,0.022,0.0218,0.0205,0.0203,0.0203,0.0189,0.0155,0.0127,0.011,0.0131,0.0069,0.0056,-0.0001,-0.0004,-0.0013,-0.0012,0.0008,-0.0026,-0.003,-0.0034,-0.0058,-0.0064,0.0011,0.0011,0.0011,0.0011,0,0.0195,0.0196,0.0193,0.0182,0.0157,0.0154,0.0116,0.0086,0.0089,0.0064,0.0021,-0.0001,-0.0029,-0.0029,-0.0028,-0.0059,-0.0048,-0.0031,-0.0014,-0.004,-0.0064,-0.007,0.001,0.001,0.001,0.0011,0,0,0.0201,0.0184,0.0192,0.0201,0.0161,0.015,0.0079,0.0033,0.0002,-0.0028,-0.0062,-0.0104,-0.0087,-0.0106,-0.0097,-0.0102,-0.0121,-0.0064,-0.0064,-0.0083,-0.0147,-0.0133,-0.0138,-0.0091,-0.0092,-0.0093,-0.0154,0,0.0207,0.0203,0.0175,0.0165,0.017,0.0124,0.0062,0.0003,-0.0042,-0.0091,-0.0118,-0.0145,-0.0126,-0.0112,-0.0125,-0.0128,-0.0137,-0.0106,-0.0125,-0.0127,-0.0105,-0.0145,-0.0096,-0.0159,-0.016,-0.0162,-0.0162,0,0.0218,0.0225,0.0232,0.0198,0.0194,0.0187,0.012,0.0056,-0.0052,-0.0092,-0.0142,-0.0175,-0.0213,-0.0167,-0.021,-0.0181,-0.0164,-0.0162,-0.0163,-0.0154,-0.0125,-0.0128,-0.0174,-0.0173,-0.0172,-0.0171,-0.0171,0,0.0282,0.0267,0.0295,0.0288,0.0233,0.0243,0.0217,0.0104,0.0037,-0.0058,-0.0114,-0.0187,-0.0198,-0.0214,-0.0235,-0.0206,-0.0274,-0.0238,-0.0223,-0.0222,-0.021,-0.0205,-0.0257,-0.0257,-0.0257,-0.0257,-0.0256,0,0.0308,0.0334,0.0364,0.0384,0.0412,0.0351,0.0341,0.0258,0.0145,0.0043,-0.0057,-0.0151,-0.0199,-0.0268,-0.0264,-0.0284,-0.0303,-0.0246,-0.0241,-0.0214,-0.0209,-0.0215,-0.0209,-0.0259,-0.0258,-0.0258,-0.0258,0,0.0349,0.0369,0.0407,0.0426,0.0455,0.0485,0.0448,0.0387,0.0284,0.0146,0.0115,-0.01,-0.0191,-0.0261,-0.0306,-0.0313,-0.0334,-0.0325,-0.0322,-0.0312,-0.0266,-0.026,-0.0323,-0.0323,-0.0323,-0.0323,-0.0323,0,0.0356,0.0396,0.0472,0.0514,0.0554,0.0603,0.0592,0.0495,0.0381,0.0154,0.0054,-0.007,-0.0199,-0.0271,-0.0333,-0.0362,-0.0336,-0.0363,-0.0291,-0.0286,-0.0274,-0.0268,-0.0263,-0.0323,-0.0323,-0.0323,-0.0323,0,0.0371,0.0427,0.0455,0.0561,0.0622,0.0618,0.0597,0.0525,0.0335,0.025,0.0028,-0.0068,-0.0185,-0.0267,-0.0291,-0.0311,-0.0365,-0.0363,-0.0362,-0.0294,-0.0287,-0.0274,-0.0268,-0.0323,-0.0323,-0.0323,-0.0323,0,0.0392,0.0424,0.0497,0.0589,0.0645,0.0621,0.0597,0.0476,0.038,0.0114,0.0054,-0.0088,-0.0181,-0.0244,-0.0288,-0.0297,-0.0272,-0.0257,-0.026,-0.0261,-0.0217,-0.0198,-0.0218,0,0,0,0,0,0.0409,0.0461,0.0515,0.0605,0.0645,0.0693,0.0563,0.0486,0.0329,0.0197,0.0125,0.0015,-0.0087,-0.0178,-0.0169,-0.0273,-0.0275,-0.0268,-0.0258,-0.0325,-0.0324,-0.0282,0,0,0,0,0,0,0.0422,0.0483,0.0519,0.0616,0.0691,0.0706,0.0638,0.0504,0.0391,0.0243,0.0191,0.0101,0.0007,0.0001,-0.011,-0.0136,-0.0124,-0.0331,-0.0331,-0.0325,-0.0325,-0.0324,-0.028,0,0,0,0,0]}]]